[[{"header":{"parameterUnit":"m.s-1","parameterCategory":1,"la1":30.2991,"la2":30.254,"lo1":-89.0895,"lo2":-89.0444,"dx":0.0017,"dy":0.0017,"nx":28,"ny":28,"refTime":"2022-12-29T15:00:00:Z","depth":0,"parameterNumber":2,"parameterNumberName":"U-component_of_WINDS"},"data":[0,0,0,0,0,0,0,0,0,0,0,0,0,0,0,0,0,0,0,0,0,0,0,0,0,0,0,0,0,0,0,0,0,0,0,0,0,0,0,0,0,0,0,0,0,0,0,0,0,0,0,0,0,0,0,0,0,0,-4.9988,-4.999,0,-5.0125,-5.0126,-5.0128,-5.0128,-5.0127,-5.0125,-5.0123,-5.0257,-5.0263,-5.0268,0,0,0,0,0,0,0,0,0,0,0,0,0,-4.9725,-4.973,-4.9988,-4.999,-4.9992,-5.0125,-5.0126,-5.0128,-5.0129,-5.0127,-5.0124,-5.0122,-5.0256,-5.0262,-5.0268,0,0,0,0,0,0,0,0,0,0,0,0,0,-4.9848,-4.9732,-4.9988,-5.0008,-5.0011,-5.0124,-5.0126,-5.0129,-5.0129,-5.0126,-5.0124,-5.0121,-5.0254,-5.0261,-5.0269,-5.0369,0,0,-5.0293,-5.0296,0,0,0,0,0,0,0,0,-4.9841,-4.9858,-5.0003,-5.0007,-5.0011,-5.0107,-5.0083,-5.0209,-5.013,-5.0084,-5.0123,-5.012,-5.0209,-5.022,-5.0252,-5.0376,-5.0381,-5.0293,-5.0298,-5.0302,-5.0304,0,0,0,0,0,0,0,-4.9833,-4.9852,-5.0042,-5.0005,-5.001,-5.0009,-5.0024,-5.0107,-5.0159,-5.0088,-5.0088,-5.0105,-5.0211,-5.0244,-5.0255,-5.0383,-5.0293,-5.03,-5.0305,-5.0308,-5.0598,-5.0601,0,0,0,0,0,0,-4.9821,-4.9845,-5.0038,-5.0046,-4.9918,-5.0016,-5.0032,-5.0079,-5.0159,-5.0168,-5.0107,-5.0104,-5.0232,-5.0246,-5.0259,-5.0382,-5.0301,-5.0309,-5.0313,-5.0595,-5.0598,-5.0602,0,0,0,0,0,0,-4.9815,-4.9838,-5.0032,-4.9946,-4.997,-5.0023,-5.0075,-5.0083,-5.0116,-5.0173,-5.0182,-5.0132,-5.0231,-5.0248,-5.0343,-5.0387,-5.0312,-5.0319,-5.0591,-5.0596,-5.06,-5.0629,0,0,0,0,0,0,-4.9807,-4.9836,-4.9875,-4.9947,-4.9975,-5.0114,-5.0078,-5.0087,-5.013,-5.0128,-5.0198,-5.0208,-5.023,-5.0331,-5.035,-5.0396,-5.0325,-5.0587,-5.0593,-5.0599,-5.0624,-5.0633,-5.0642,0,0,0,0,0,-4.9798,-4.9876,-4.9877,-4.99,-5.0025,-5.0117,-5.0133,-5.0158,-5.0134,-5.0173,-5.021,-5.0205,-5.038,-5.0341,-5.0362,-5.0411,-5.0585,-5.0592,-5.0598,-5.062,-5.0632,-5.0642,0,0,0,0,0,0,-4.9805,-4.9886,-4.9887,-4.9991,-5.0048,-5.0117,-5.0167,-5.017,-5.0232,-5.0228,-5.0255,-5.0271,-5.0365,-5.0398,-5.0353,-5.0513,-5.0479,-5.049,-5.0488,-5.05,-5.0508,-5.0497,-5.0332,0,0,0,0,0,-4.982,-4.9888,-4.9954,-5.004,-5.0068,-5.0113,-5.0153,-5.0169,-5.0227,-5.025,-5.0294,-5.035,-5.0417,-5.0461,-5.0526,-5.063,-5.0645,-5.0674,-5.0683,-5.069,-5.0699,-5.0757,-5.0771,-5.0624,-5.0624,-5.0624,0,0,-4.9848,-4.9901,-4.9942,-5.0043,-5.0088,-5.0157,-5.0132,-5.0207,-5.0258,-5.0261,-5.0353,-5.0387,-5.0451,-5.0551,-5.0597,-5.0581,-5.0744,-5.0699,-5.0704,-5.0709,-5.0765,-5.0779,-5.0791,-5.0629,-5.0628,-5.0627,0,0,-4.9936,-4.9984,-5.006,-5.0107,-5.0177,-5.0207,-5.0226,-5.0296,-5.0319,-5.0413,-5.0416,-5.0478,-5.0593,-5.0639,-5.0677,-5.0787,-5.0784,-5.0807,-5.0853,-5.0909,-5.092,-5.0931,-5.0969,-5.0982,-5.0816,-5.0817,-5.0817,0,-4.9963,-5.0069,-5.0099,-5.0174,-5.0218,-5.0227,-5.0304,-5.0348,-5.0435,-5.0464,-5.0446,-5.0593,-5.0637,-5.0747,-5.0775,-5.0806,-5.0827,-5.0798,-5.0917,-5.0927,-5.0937,-5.0974,-5.0988,-5.0819,-5.0818,-5.0818,-5.0818,0,-5.0098,-5.0172,-5.0225,-5.0311,-5.0362,-5.0437,-5.0478,-5.0525,-5.0537,-5.0569,-5.0664,-5.0718,-5.0794,-5.0823,-5.0834,-5.0936,-5.0924,-5.0911,-5.0876,-5.0953,-5.0988,-5.1002,-5.0822,-5.0821,-5.082,-5.082,0,0,-5.019,-5.0295,-5.0314,-5.0354,-5.0433,-5.049,-5.0567,-5.0645,-5.0684,-5.0745,-5.0809,-5.0909,-5.0899,-5.0942,-5.0959,-5.1009,-5.1092,-5.099,-5.0992,-5.1006,-5.1206,-5.1213,-5.1229,-5.1092,-5.1095,-5.1097,-5.12,0,-5.0286,-5.0424,-5.0454,-5.0572,-5.0641,-5.0652,-5.0719,-5.0775,-5.0807,-5.0869,-5.0905,-5.0975,-5.0956,-5.0983,-5.1033,-5.1071,-5.1132,-5.1064,-5.115,-5.1153,-5.1131,-5.1248,-5.1255,-5.135,-5.1214,-5.1217,-5.1218,0,-5.0414,-5.0481,-5.0606,-5.0679,-5.0709,-5.0768,-5.0842,-5.0902,-5.0966,-5.0986,-5.1037,-5.105,-5.1129,-5.1094,-5.1203,-5.1157,-5.1195,-5.1219,-5.1223,-5.123,-5.1188,-5.1256,-5.1381,-5.1394,-5.124,-5.1238,-5.1237,0,-5.0468,-5.0589,-5.068,-5.0714,-5.0801,-5.0842,-5.088,-5.0942,-5.0987,-5.1052,-5.1081,-5.1154,-5.1193,-5.1248,-5.128,-5.1252,-5.1387,-5.1354,-5.1405,-5.1404,-5.143,-5.1428,-5.1561,-5.1458,-5.1458,-5.1458,-5.1458,0,-5.0569,-5.0645,-5.0705,-5.0761,-5.0846,-5.0881,-5.0965,-5.1003,-5.1058,-5.1121,-5.1135,-5.1193,-5.1233,-5.1297,-5.1323,-5.1409,-5.1427,-5.1444,-5.145,-5.1442,-5.1439,-5.1465,-5.1458,-5.1462,-5.1461,-5.146,-5.146,0,-5.0642,-5.0685,-5.0785,-5.0861,-5.0882,-5.0941,-5.1006,-5.106,-5.1094,-5.1174,-5.1194,-5.1247,-5.1323,-5.1362,-5.1456,-5.1473,-5.1571,-5.1573,-5.1549,-5.1551,-5.1599,-5.1593,-5.1751,-5.1773,-5.1658,-5.1659,-5.166,0,-5.0702,-5.0762,-5.0845,-5.0889,-5.0929,-5.0999,-5.1046,-5.1084,-5.1132,-5.1211,-5.1256,-5.1333,-5.1397,-5.1518,-5.1564,-5.1636,-5.1639,-5.169,-5.1649,-5.164,-5.1638,-5.1633,-5.1639,-5.1695,-5.1696,-5.1697,-5.1698,0,-5.0805,-5.0825,-5.0893,-5.097,-5.1026,-5.1087,-5.1148,-5.1183,-5.123,-5.1284,-5.1363,-5.1413,-5.1511,-5.1587,-5.1663,-5.1701,-5.1707,-5.1711,-5.1726,-5.1717,-5.17,-5.1709,-5.1566,-5.1706,-5.1705,-5.1705,-5.1704,-5.1704,-5.0873,-5.0926,-5.0994,-5.107,-5.112,-5.1177,-5.1232,-5.1275,-5.1342,-5.1426,-5.1445,-5.1528,-5.1592,-5.1696,-5.1737,-5.1802,-5.1791,-5.1813,-5.1818,-5.1823,-5.1824,-5.1693,-5.1816,-5.1816,-5.1816,-5.1816,-5.1816,0,-5.0975,-5.102,-5.109,-5.1175,-5.1235,-5.124,-5.1308,-5.1357,-5.1431,-5.1491,-5.1555,-5.1646,-5.1721,-5.1775,-5.1851,-5.1893,-5.1898,-5.1912,-5.1907,-5.1916,-5.183,-5.1809,-5.1907,-5.1907,-5.1907,-5.1907,-5.1907,-5.1907,-5.1035,-5.1126,-5.1154,-5.127,-5.1314,-5.1398,-5.1436,-5.1489,-5.1537,-5.164,-5.1703,-5.1739,-5.1796,-5.1878,-5.1946,-5.196,-5.1986,-5.2,-5.2013,-5.1932,-5.1922,-5.1913,-5.1892,-5.2006,-5.2006,-5.2093,-5.2094,-5.2095]},{"header":{"parameterUnit":"m.s-1","parameterCategory":1,"la1":30.2991,"la2":30.254,"lo1":-89.0895,"lo2":-89.0444,"dx":0.0017,"dy":0.0017,"nx":28,"ny":28,"refTime":"2022-12-29T15:00:00:Z","depth":0,"parameterNumber":3,"parameterNumberName":"V-component_of_WINDS"},"data":[0,0,0,0,0,0,0,0,0,0,0,0,0,0,0,0,0,0,0,0,0,0,0,0,0,0,0,0,0,0,0,0,0,0,0,0,0,0,0,0,0,0,0,0,0,0,0,0,0,0,0,0,0,0,0,0,0,0,2.6605,2.6606,0,2.6712,2.6713,2.6715,2.6766,2.6766,2.6766,2.6766,2.6873,2.6876,2.6879,0,0,0,0,0,0,0,0,0,0,0,0,0,2.6445,2.6448,2.6605,2.6606,2.6608,2.6712,2.6713,2.6715,2.6766,2.6766,2.6766,2.6766,2.6872,2.6876,2.6879,0,0,0,0,0,0,0,0,0,0,0,0,0,2.6529,2.6449,2.6605,2.6646,2.665,2.6712,2.6713,2.6715,2.6766,2.6766,2.6766,2.6766,2.6871,2.6875,2.688,2.6907,0,0,2.6893,2.6895,0,0,0,0,0,0,0,0,2.6525,2.6535,2.6638,2.6643,2.6648,2.6726,2.6697,2.678,2.6766,2.6722,2.6766,2.6766,2.6824,2.6832,2.6852,2.6912,2.6917,2.6893,2.6896,2.6898,2.6899,0,0,0,0,0,0,0,2.6519,2.6531,2.6647,2.664,2.6646,2.6659,2.6671,2.6712,2.6772,2.6726,2.673,2.6742,2.6827,2.6848,2.6855,2.6919,2.6893,2.6897,2.69,2.6901,2.7011,2.7011,0,0,0,0,0,0,2.6506,2.6526,2.6644,2.665,2.6585,2.6662,2.6675,2.6701,2.6772,2.6782,2.6742,2.6744,2.6841,2.685,2.6859,2.6899,2.6898,2.6902,2.6904,2.7011,2.7011,2.7012,0,0,0,0,0,0,2.6503,2.6516,2.664,2.6589,2.6606,2.6665,2.6693,2.6703,2.6724,2.6784,2.6794,2.6753,2.6841,2.6853,2.6896,2.6904,2.6904,2.6908,2.701,2.7011,2.7011,2.6978,0,0,0,0,0,0,2.6498,2.6515,2.6525,2.6589,2.6608,2.6674,2.6693,2.6705,2.6732,2.6736,2.6797,2.6807,2.6842,2.6889,2.69,2.691,2.6911,2.701,2.7011,2.7011,2.6978,2.6977,2.6976,0,0,0,0,0,2.6492,2.651,2.6526,2.654,2.6623,2.6675,2.6686,2.6726,2.6732,2.6744,2.6783,2.6805,2.6901,2.6893,2.6906,2.6917,2.701,2.7011,2.7011,2.6979,2.6977,2.6976,0,0,0,0,0,0,2.6444,2.6519,2.6537,2.6577,2.6619,2.6683,2.6699,2.6723,2.6763,2.6765,2.6813,2.6826,2.6866,2.6895,2.6886,2.6949,2.6958,2.6961,2.6929,2.6928,2.6926,2.6919,2.6915,0,0,0,0,0,2.6439,2.6475,2.6538,2.6567,2.6587,2.664,2.6663,2.6691,2.6737,2.6755,2.6796,2.6839,2.688,2.6905,2.6945,2.6983,2.6998,2.6997,2.6995,2.6994,2.6997,2.7022,2.7023,2.7014,2.7014,2.7014,0,0,2.6427,2.6473,2.6492,2.6559,2.6595,2.6631,2.6654,2.6691,2.6719,2.676,2.6804,2.6837,2.6888,2.6929,2.695,2.6955,2.7003,2.6995,2.6993,2.6997,2.7023,2.7024,2.7024,2.7014,2.7014,2.7014,0,0,2.6425,2.6462,2.6492,2.6528,2.6584,2.6619,2.6626,2.6687,2.6711,2.6756,2.6789,2.6823,2.689,2.6927,2.6954,2.6969,2.6992,2.6981,2.6974,2.6998,2.6999,2.7,2.7008,2.701,2.6983,2.6983,2.6983,0,2.6403,2.646,2.6504,2.654,2.657,2.6611,2.6642,2.6675,2.674,2.676,2.6765,2.6853,2.689,2.6943,2.6947,2.6967,2.6978,2.6974,2.6995,2.6997,2.6998,2.7006,2.7009,2.6981,2.6982,2.6982,2.6982,0,2.6432,2.6471,2.6488,2.6552,2.6584,2.6617,2.6667,2.6693,2.6719,2.6754,2.6801,2.6848,2.69,2.6914,2.6938,2.6971,2.6973,2.6986,2.6996,2.6997,2.7006,2.7009,2.6979,2.698,2.698,2.6981,0,0,2.6402,2.6492,2.6498,2.6529,2.6594,2.6625,2.6661,2.6713,2.6736,2.678,2.6813,2.6871,2.6885,2.6916,2.6945,2.6966,2.6979,2.6978,2.698,2.6978,2.7021,2.7011,2.7014,2.6995,2.6995,2.6996,2.7017,0,2.641,2.6478,2.652,2.6571,2.6609,2.665,2.6682,2.6726,2.676,2.6797,2.6835,2.6876,2.689,2.691,2.6932,2.6973,2.6989,2.6972,2.7027,2.7028,2.7014,2.7018,2.7008,2.7026,2.7021,2.7021,2.7022,0,2.6428,2.6474,2.6529,2.6594,2.6611,2.6639,2.6692,2.6727,2.6778,2.6802,2.6838,2.6869,2.691,2.6916,2.6975,2.6962,2.6988,2.7011,2.7013,2.702,2.7026,2.7028,2.7032,2.7035,2.7027,2.7026,2.7026,0,2.6404,2.6478,2.6522,2.6547,2.6622,2.6642,2.6674,2.6726,2.6755,2.6801,2.6822,2.6871,2.6899,2.6937,2.6981,2.698,2.7036,2.7045,2.7058,2.7057,2.7068,2.7067,2.7079,2.7082,2.7082,2.7082,2.7082,0,2.6409,2.6442,2.6512,2.6539,2.6578,2.6627,2.6664,2.6699,2.6745,2.6781,2.6818,2.6851,2.6906,2.6945,2.6979,2.7025,2.7036,2.7057,2.7066,2.7055,2.7052,2.7073,2.7073,2.7082,2.7082,2.7082,2.7082,0,2.6388,2.6436,2.6487,2.6555,2.6574,2.6599,2.6658,2.6686,2.6724,2.6768,2.6781,2.684,2.6889,2.6936,2.7,2.7024,2.7069,2.708,2.7052,2.7058,2.7069,2.7068,2.7095,2.7102,2.7099,2.7099,2.7099,0,2.6389,2.6416,2.6488,2.6515,2.6547,2.6589,2.6621,2.6671,2.6702,2.6765,2.6786,2.6838,2.6883,2.6959,2.7007,2.7058,2.7071,2.7077,2.7079,2.7068,2.7074,2.7073,2.7077,2.7076,2.7076,2.7076,2.7076,0,2.6387,2.641,2.6454,2.6508,2.6545,2.6589,2.6634,2.6654,2.6713,2.6747,2.6798,2.6833,2.6901,2.6953,2.7009,2.7043,2.707,2.7075,2.7081,2.707,2.7054,2.7066,2.7051,2.7074,2.7074,2.7074,2.7074,2.7074,2.6378,2.6405,2.6461,2.651,2.655,2.6593,2.6624,2.6666,2.671,2.677,2.6797,2.6849,2.6903,2.6983,2.7017,2.7059,2.7065,2.7073,2.7076,2.7078,2.7077,2.7046,2.7069,2.7069,2.7069,2.7069,2.707,0,2.638,2.6419,2.6463,2.6527,2.6566,2.6589,2.6642,2.6673,2.6719,2.6767,2.6811,2.6872,2.6923,2.6977,2.7031,2.7055,2.7069,2.7068,2.7068,2.7076,2.7066,2.7057,2.7056,2.7056,2.7056,2.7056,2.7056,2.7056,2.6385,2.6433,2.6464,2.6532,2.6571,2.6624,2.6652,2.6692,2.6732,2.6798,2.6842,2.6877,2.6928,2.6988,2.7037,2.7051,2.707,2.7066,2.7084,2.7075,2.7076,2.7076,2.7068,2.707,2.707,2.7091,2.7091,2.7091]}]]